Flag for U.S.A. Weather past 2 weeks in Grand Rapids, Michigan, U.S.A.

Now
53 °F

Overcast.


Feels Like: 52 °F
Forecast: 47 / 67 °F
Wind: 5 mph from Northeast

Location: Kent County International Airport

Current Time: Oct 1, 2014 at 5:09:36 AM

Latest Report: Oct 1, 2014 at 3:53 AM


Visibility: 10 mi

Pressure: 30.05 "Hg

Humidity: 89%

Dew point: 50 °F

Location of Grand RapidsLocation

Historic Weather in Grand Rapids — Graph

°F

Grand Rapids temperature yesterday

Maximum temperature yesterday: 58 °F (at 2:53 PM)
Minimum temperature yesterday: 49 °F (at 3:53 AM)
Average temperature yesterday: 53 °F

Past Weeks' High & Low Weather Summary

 TemperatureHumidityPressure
High79 °F (Sep 29, 3:53 PM)100% (Sep 16, 3:03 AM)30.42 "Hg (Sep 16, 3:03 AM)
Low41 °F (Sep 17, 4:53 AM)42% (Sep 26, 3:53 PM)29.62 "Hg (Sep 21, 3:53 AM)
Average59 °F78%30.13 "Hg
* Reported Sep 16 3:03 AM — Oct 1 3:53 AM, Grand Rapids, Weather by CustomWeather, © 2014

Note: Actual official high and low records may vary slightly from our data, if they occured in-between our weather recording intervals... More about our weather records

Advertising

Grand Rapids weather history for previous 24 hours

 ConditionsComfort  
Time TempWeatherWind HumidityBarometerVisibility
3:53 AM
Oct 1
53 °FOvercast.5 mph89%30.05 "Hg10 mi
2:53 AM53 °FOvercast.No wind89%30.06 "Hg10 mi
1:53 AM53 °FOvercast.No wind89%30.05 "Hg10 mi
12:53 AM53 °FOvercast.7 mph89%30.06 "Hg10 mi
11:53 PM
Sep 30
53 °FMostly cloudy.7 mph93%30.05 "Hg10 mi
10:53 PM54 °FOvercast.6 mph86%30.04 "Hg10 mi
9:53 PM54 °FOvercast.5 mph86%30.03 "Hg10 mi
8:53 PM55 °FOvercast.6 mph80%30.04 "Hg10 mi
7:53 PM55 °FOvercast.7 mph80%30.02 "Hg10 mi
6:53 PM56 °FOvercast.7 mph77%30.01 "Hg10 mi
5:53 PM56 °FOvercast.8 mph77%30.01 "Hg10 mi
4:53 PM58 °FOvercast.8 mph72%30.01 "Hg10 mi
3:53 PM58 °FOvercast.7 mph72%30.01 "Hg10 mi
2:53 PM58 °FMostly cloudy.5 mph70%30.01 "Hg10 mi
1:53 PM56 °FMostly cloudy.10 mph77%30.02 "Hg10 mi
12:53 PM55 °FMostly cloudy.7 mph77%30.02 "Hg10 mi
11:53 AM54 °FOvercast.7 mph77%30.02 "Hg10 mi
10:53 AM52 °FOvercast.9 mph83%30.02 "Hg10 mi
9:53 AM51 °FMostly cloudy.9 mph86%30.02 "Hg10 mi
8:53 AM49 °FOvercast.8 mph93%30.02 "Hg10 mi
7:53 AM49 °FOvercast.9 mph93%30.01 "Hg10 mi
6:53 AM49 °FMostly cloudy.10 mph93%30.00 "Hg10 mi
5:53 AM49 °FMostly cloudy.10 mph97%29.99 "Hg10 mi
Weather by CustomWeather, © 2014

See weather overviewHow to use our weather pages